Regional Weather Roundup
Issued by NWS

Home | Current Version | Previous Version | Graphics & Text | Print | Product List | Glossary On
Versions: 1 2 3 4 5 6 7 8 9 10 11 12 13 14 15 16 17 18 19 20 21 22 23 24 25 26 27 28 29 30 31 32 33 34 35 36 37 38 39 40 41 42 43 44 45 46 47 48 49 50
000
ASUS43 KMKX 101321
RWRWI

WISCONSIN REGIONAL WEATHER ROUNDUP
NATIONAL WEATHER SERVICE MILWAUKEE/SULLIVAN WI
800 AM CDT THU JUL 10 2014

NOTE: "FAIR" INDICATES FEW OR NO CLOUDS BELOW 12,000 FEET WITH NO
SIGNIFICANT WEATHER AND/OR OBSTRUCTIONS TO VISIBILITY.

WIZ001-002-006>008-014>016-023>028-101400-
NORTHWEST WISCONSIN

CITY           SKY/WX    TMP DP  RH WIND       PRES   REMARKS
SUPERIOR ARPT  MOSUNNY   59  55  89 CALM      30.07S
ASHLAND        MOSUNNY   60  55  83 CALM      30.10S
HAYWARD        SUNNY     63  54  72 CALM      30.10R
SIREN          SUNNY     64  56  77 S7        30.07S
RICE LAKE      SUNNY     62  55  77 E3        30.11S
LADYSMITH      SUNNY     61  53  74 SE7       30.13S
EAU CLAIRE     SUNNY     64  55  72 SE6       30.09R
MENOMONIE      SUNNY     63  58  84 E5        30.09S
NEW RICHMOND   MOSUNNY   64  59  82 SE6       30.08R
OSCEOLA        SUNNY     65  61  86 SE5       30.10R
$$

WIZ003>005-009-010-017-018-101400-
NORTH CENTRAL WISCONSIN

CITY           SKY/WX    TMP DP  RH WIND       PRES   REMARKS
WOODRUFF       SUNNY     61  55  80 S3        30.14S
RHINELANDER    SUNNY     55  50  83 CALM      30.16R
EAGLE RIVER    SUNNY     56  50  80 CALM      30.15S
LAND O LAKES   SUNNY     56  51  84 CALM      30.16S
PHILLIPS       SUNNY     60  52  74 SE3       30.12F
TOMAHAWK       PTSUNNY   56  55  97 CALM      30.15S
MEDFORD        SUNNY     59  54  81 S8        30.14S
MERRILL        MOSUNNY   56  51  83 CALM      30.15S
$$

WIZ029-030-035-036-043>047-101400-
CENTRAL WISCONSIN

CITY           SKY/WX    TMP DP  RH WIND       PRES   REMARKS
WAUSAU         SUNNY     59  52  77 E3        30.13S
MOSINEE        SUNNY     57  54  88 SE5       30.15S
MARSHFIELD     SUNNY     63  55  75 SE6       30.13S
STEVENS POINT  SUNNY     60  52  74 CALM      30.15S
WAUPACA        SUNNY     60  56  89 CALM      30.16R
WAUTOMA        SUNNY     62  56  81 CALM      30.16R
WISC RAPIDS    SUNNY     64  53  67 S6        30.15R
CAMP DOUGLAS   MOSUNNY   61  48  63 SE5       30.13R
$$

WIZ011>013-019>022-031-037>040-048>050-101400-
NORTHEAST WISCONSIN

CITY           SKY/WX    TMP DP  RH WIND       PRES   REMARKS
ANTIGO         SUNNY     60  53  76 S5        30.16S
STURGEON BAY   SUNNY     63  52  67 S7        30.18R
GREEN BAY      SUNNY     62  56  80 SE3       30.16R
MANITOWOC      CLOUDY    61  59  94 VRB3      30.17R
APPLETON       SUNNY    N/A N/A N/A CALM      30.16R
CLINTONVILLE   SUNNY     59  54  82 CALM      30.15S
OSHKOSH        SUNNY     64  56  75 S3        30.15R
$$

WIZ032>034-041-042-053>061-101400-
SOUTHWEST WISCONSIN

CITY           SKY/WX    TMP DP  RH WIND       PRES   REMARKS
LA CROSSE      MOSUNNY   65  55  70 SE6       30.10R
SPARTA         MOSUNNY   60  56  84 CALM      30.12S
VIROQUA        FAIR      64  55  73 SE9       30.13S
BOSCOBEL       SUNNY     63  58  83 NE5       30.14R
PRAIRIE DU CHI MOSUNNY   65  58  80 E3        30.12R
PLATTEVILLE    FAIR      66  57  73 SE6       30.15R
$$

WIZ056-057-062-063-064-067-068-101400-
SOUTH CENTRAL WISCONSIN

CITY           SKY/WX    TMP DP  RH WIND       PRES   REMARKS
BARABOO/DELLS  SUNNY     63  56  76 CALM      30.14R
LONE ROCK      CLOUDY    64  57  78 E5        30.15R
WATERTOWN      SUNNY     64  57  78 CALM      30.15R
MADISON        SUNNY     66  55  67 S5        30.14R
MIDDLETON      FAIR      65  61  87 CALM      30.15R
MONROE         PTSUNNY   64  55  72 S5        30.15R
JANESVILLE     MOSUNNY   63  55  77 CALM      30.14R
$$

WIZ051-052-058>065-066-070>072-101400-
SOUTHEAST WISCONSIN

CITY           SKY/WX    TMP DP  RH WIND       PRES   REMARKS
MILWAUKEE      SUNNY     65  58  78 E3        30.16R
WAUKESHA       SUNNY     63  55  77 CALM      30.17R
MILWAUKEE/TIMM SUNNY     64  55  72 CALM      30.16S
RACINE         MOSUNNY   64  57  78 SE6       30.17R
BURLINGTON     SUNNY     60  57  89 CALM      30.15S
KENOSHA        SUNNY     65  58  78 CALM      30.16R
FOND DU LAC    SUNNY     63  56  78 S5        30.15S
SHEBOYGAN      FOG       58  58 100 SE5       30.16S VSB 1/4
WEST BEND      SUNNY     61  54  77 CALM      30.16S
JUNEAU         SUNNY     64  43  47 CALM      30.16S
$$

LSZ147-162-101400-
LAKE SUPERIOR

STATION/POSITION TIME  TEMP    WIND        PRES    WAVE
                       AIR SEA DIR/SP/G            HT/PER
                 (UTC) (F)     (DEG/KT/KT) (MB)    (FT/S)
W MID LAKE BUOY  1250   43 38  100/  2/  4 1019.7R   0
DEVILS ISLAND    1300   61      CALM  /  1 1019.0R
PORT WING        1200   60      CALM  /  3 1018.3
SAXON HARBOR     1200          200/  4/  6 1019.0S
$$

LMZ867-665-643>646-101400-
LAKE MICHIGAN

STATION/POSITION TIME  TEMP    WIND        PRES    WAVE
                       AIR SEA DIR/SP/G            HT/PER
                 (UTC) (F)     (DEG/KT/KT) (MB)    (FT/S)
N MID LAKE BUOY  1250   56 54  190/  4/  6 1021.3R   0
NORTHPORT PIER   1200   61     160/  3/  4 1021.0R
KEWAUNEE LAKESHO 1300   52     150/  2/  3 1022.1R
SHEBOYGAN LAKESH 1300   58     170/  3/  3 1021.7R
PORT WASHINGTON  1200   53      30/  3/  4 1021.7R
MILWAUKEE LAKESH 1300   58      40/  5/  6   N/A
S MID LAKE BUOY  1250   57 55   50/  6/  6 1021.5R   0
KENOSHA   LAKESH 1300   61      50/  2/  3   N/A
$$

TC  - TEMPERATURE IN CELSIUS
VSB - VISIBILITY IN STATUTE MILES
WCI - WIND CHILL INDEX
HX  - HEAT INDEX




USA.gov is the U.S. government's official web portal to all federal, state and local government web resources and services.